Overview Statistics Trail Chart Weather Telemetry Raw packets
 

This is the latest recevied weather packets stored in our database for station/object KB2EAR-13. If no packets are shown the sender has not sent any weather packets the latest 10 day(s).

<< 13 14 15 16 17 18 19 >>
Time Temp. Humidity Pressure Rain* Wind** Luminosity Snow
1788537715 28.89° C 66% 1012.9 hPa 0 mm - - -
1788537636 28.33° C 67% 1012.9 hPa 0 mm - - -
1788537317 28.33° C 67% 1012.9 hPa 0 mm - - -
1788537017 28.33° C 68% 1012.9 hPa 0 mm - - -
1788536745 28.33° C 68% 1012.9 hPa 0 mm - - -
1788536417 28.33° C 68% 1013 hPa 0 mm - - -
1788536117 28.33° C 68% 1013.1 hPa 0 mm - - -
1788535817 28.33° C 69% 1013.1 hPa 0 mm - - -
1788535517 28.33° C 69% 1013.1 hPa 0 mm - - -
1788535222 28.33° C 69% 1013.2 hPa 0 mm - - -
1788534917 28.33° C 68% 1013.3 hPa 0 mm - - -
1788534617 27.78° C 70% 1013.2 hPa 0 mm - - -
1788534317 27.78° C 70% 1013.2 hPa 0 mm - - -
1788534017 27.78° C 70% 1013.3 hPa 0 mm - - -
1788533717 27.78° C 69% 1013.3 hPa 0 mm - - -
1788533417 27.78° C 70% 1013.3 hPa 0 mm - - -
1788533117 27.22° C 72% 1013.2 hPa 0 mm - - -
1788532817 27.22° C 74% 1013.2 hPa 0 mm - - -
1788532517 27.78° C 72% 1013.2 hPa 0 mm - - -
1788532217 27.78° C 73% 1013 hPa 0 mm - - -
1788531917 27.22° C 77% 1013.2 hPa 0 mm - - -
1788531617 27.22° C 76% 1013.1 hPa 0 mm - - -
1788531317 27.22° C 77% 1013 hPa 0 mm - - -
1788531017 27.22° C 78% 1012.8 hPa 0 mm - - -
1788530717 27.22° C 78% 1012.9 hPa 0 mm - - -

* Rain latest hour (hover to see other rain measurements)
** Current wind speed in m/s (hover to see current wind gust speed)